EST,Max TemperatureF,Mean TemperatureF,Min TemperatureF,Max Dew PointF,MeanDew PointF,Min DewpointF,Max Humidity, Mean Humidity, Min Humidity, Max Sea Level PressureIn, Mean Sea Level PressureIn, Min Sea Level PressureIn, Max VisibilityMiles, Mean VisibilityMiles, Min VisibilityMiles, Max Wind SpeedMPH, Mean Wind SpeedMPH, Max Gust SpeedMPH,PrecipitationIn, CloudCover, Events, WindDirDegrees
2014-2-1,32,29,25,28,25,21,92,85,78,30.12,29.95,29.80,10,2,0,14,6,17,0.53,8,Fog-Snow,23
2014-2-2,27,17,6,22,17,3,83,75,67,30.32,30.18,30.03,10,10,6,17,8,21,0.00,7,,333
2014-2-3,25,11,-4,13,1,-9,91,73,55,30.43,30.36,30.27,10,8,1,8,2,10,0.00,2,,236
2014-2-4,23,14,4,16,8,-1,87,67,47,30.46,30.32,30.11,10,6,1,12,3,22,0.03,5,Snow,66
2014-2-5,24,22,19,18,15,10,84,76,67,30.43,30.14,29.94,10,4,1,23,13,26,0.18,8,Snow,360
2014-2-6,19,8,-4,14,1,-11,88,76,63,30.45,30.41,30.36,10,8,3,16,10,21,T,5,Snow,234
2014-2-7,10,2,-7,-3,-8,-13,78,65,52,30.45,30.41,30.33,10,10,9,18,10,25,0.00,2,,223
2014-2-8,16,11,5,11,5,-3,80,72,63,30.39,30.26,30.16,10,5,0,13,5,17,0.08,7,Snow,160
2014-2-9,18,14,9,11,8,2,88,75,61,30.27,30.15,30.08,10,7,2,17,7,21,0.02,6,Snow,276
2014-2-10,13,5,-4,5,-1,-8,79,70,61,30.47,30.38,30.27,10,9,5,17,9,20,T,3,Snow,277
2014-2-11,17,5,-8,3,-5,-14,79,66,53,30.57,30.50,30.42,10,10,6,9,4,15,T,4,Snow,224
2014-2-12,24,11,-3,9,1,-7,86,63,40,30.45,30.27,30.08,10,9,5,10,5,13,0.00,4,,134
2014-2-13,31,17,3,22,10,1,80,63,46,30.07,29.79,29.50,10,8,2,29,9,36,T,5,Snow,171
2014-2-14,27,23,18,19,15,12,77,73,68,29.90,29.73,29.51,10,6,2,29,12,36,T,7,Snow,305
2014-2-15,27,22,16,18,13,6,84,72,60,30.11,30.01,29.86,10,6,2,16,5,20,0.02,7,Snow,296
2014-2-16,27,22,16,19,15,10,84,79,73,30.31,30.08,29.95,10,6,2,20,7,23,0.01,8,Snow,271
2014-2-17,26,22,17,21,16,10,92,77,62,30.33,29.87,29.66,9,3,0,30,15,36,0.29,7,Fog-Snow,143
2014-2-18,46,31,15,29,22,12,88,69,49,30.04,29.87,29.69,10,8,2,31,13,38,0.00,2,,211
2014-2-19,43,37,30,30,28,25,85,69,53,30.04,29.86,29.65,10,8,2,20,9,25,0.01,2,Snow,258
2014-2-20,49,41,32,48,35,28,92,84,75,30.01,29.61,29.33,10,4,0,35,14,43,1.64,7,Fog-Rain-Thunderstorm,126
2014-2-21,37,34,31,28,24,16,75,61,47,29.83,29.61,29.45,10,10,9,32,22,48,T,6,,230
2014-2-22,36,30,23,23,17,10,69,58,47,30.05,29.97,29.83,10,10,10,16,10,21,0.00,4,,243
2014-2-23,30,25,20,16,12,9,74,60,46,30.20,30.15,30.06,10,10,10,15,10,21,0.00,0,,284
2014-2-24,27,22,16,11,9,8,73,60,46,30.28,30.23,30.16,10,10,10,21,12,26,0.00,3,,289
2014-2-25,24,19,13,12,9,2,67,60,53,30.23,30.18,30.11,10,9,2,21,12,28,T,7,Snow,284
2014-2-26,16,12,8,7,2,-4,80,66,52,30.20,30.09,29.70,10,5,1,25,15,33,T,7,Snow,279
2014-2-27,19,9,-2,10,3,-8,80,67,53,30.25,29.87,29.59,10,4,0,30,15,37,0.01,6,Fog-Snow,302
2014-2-28,27,12,-4,11,0,-8,79,63,47,30.30,30.20,30.06,10,10,10,20,9,25,0.00,0,,141